Regional Weather Roundup
Issued by NWS

Home | Current Version | Previous Version | Text Only | Print | Product List | Glossary Off
Versions: 1 2 3 4 5 6 7 8 9 10 11 12 13 14 15 16 17 18 19 20 21 22 23 24 25 26 27 28 29 30 31 32 33 34 35 36 37 38 39 40 41 42 43 44 45 46 47 48 49 50

000
ASUS44 KMEG 040910
RWRTN
TENNESSEE HOURLY STATE WEATHER ROUNDUP
NATIONAL WEATHER SERVICE MEMPHIS TN
400 AM CDT WED MAY 04 2016

TNZ002-004-019-021-049-052-054-088>092-041000-
WEST TENNESSEE

CITY           SKY/WX    TMP DP  RH WIND       PRES   REMARKS
MEMPHIS INTL   CLEAR     53  48  83 W3        29.92F
NWS MEMPHIS      N/A     49 N/A N/A MISG        N/A
JACKSON        PTCLDY    48  46  93 S3        29.90F
DYERSBURG      CLEAR     48  46  93 CALM      29.89F
UNION CITY     CLEAR     50  48  93 SW3       29.87F
LEXINGTON      CLEAR     45  45 100 CALM      29.88F
$$

TNZ008-025-027-028-033-062-065-066-041000-
NORTH MIDDLE TENNESSEE

CITY           SKY/WX    TMP DP  RH WIND       PRES   REMARKS
NASHVILLE      CLEAR     49  45  86 CALM      29.87F
CLARKSVILLE    CLEAR     48  45  89 CALM      29.87F
SMYRNA         CLEAR     49  47  93 CALM      29.88F
COOKEVILLE       N/A     43  43 100 CALM      29.85S VSB 3/4
CROSSVILLE     CLEAR     45  43  93 W3        29.86F
$$

TNZ061-075-076-078-094-096-097-041000-
SOUTH MIDDLE TENNESSEE

CITY           SKY/WX    TMP DP  RH WIND       PRES   REMARKS
FAYETTEVILLE   CLEAR     48  46  93 CALM      29.88F
TULLAHOMA      CLEAR     46  46 100 NW3       29.88F
WINCHESTER     CLEAR     46  45  93 CALM      29.89S
MCMINNVILLE    CLEAR     45  45 100 SW3       29.87S
COLUMBIA       CLEAR    N/A N/A N/A CALM      29.87F
SHELBYVILLE    CLEAR     46  46 100 CALM      29.89F
$$

TNZ017-018-042-046-047-041000-
NORTHEAST TENNESSEE

CITY           SKY/WX    TMP DP  RH WIND       PRES   REMARKS
TRI CITIES     CLOUDY    54  46  74 W5        29.79F
$$

TNZ012-013-036-069-073-074-041000-
CENTRAL EAST TENNESSEE

CITY           SKY/WX    TMP DP  RH WIND       PRES   REMARKS
KNOXVILLE      PTCLDY    55  47  74 W8        29.82S
OAK RIDGE      CLEAR     54  43  66 CALM      29.85S
GATLINBURG     PTSUNNY   54  46  76 W3        29.82S
MORRISTOWN     CLOUDY    54  48  82 NW7       29.81S
$$

TNZ083-085-099-041000-
SOUTHEAST TENNESSEE

CITY           SKY/WX    TMP DP  RH WIND       PRES   REMARKS
CHATTANOOGA    CLEAR     54  45  71 W7        29.86S
$$

SKY/WX REPORTED AS FAIR MEANS FEW OR NO CLOUDS BELOW
12 THOUSAND FEET.





USA.gov is the U.S. government's official web portal to all federal, state and local government web resources and services.